Forest City, IA

11:20 AM CST on February 26, 2017 (GMT -0600)
Forest City Municipal

Weather History for KFXY - January, 2014

Change the Weather History Date:

Saturday, January 4, 2014

  Actual Average Record
Temperature  
Mean Temperature 18 °F -  
Max Temperature 33 °F 20 °F 37 °F (2012)
Min Temperature 3 °F 4 °F -4 °F (2015)
Degree Days  
Heating Degree Days 47    
Moisture  
Dew Point 10 °F    
Average Humidity 75    
Maximum Humidity 93    
Minimum Humidity 62    
Precipitation  
Precipitation 0.00 in - - ()
Sea Level Pressure  
Sea Level Pressure 29.88 in    
Wind  
Wind Speed 15 mph (NW)    
Max Wind Speed 25 mph    
Max Gust Speed 33 mph    
Visibility 8 miles    
Events Snow    
Averages and records for this station are not official NWS values.
T = Trace of Precipitation, MM = Missing Value Source: NWS Daily Summary

Daily Weather History Graph

Daily Weather History Graph

Search for Another Location

Airport or City:

Trip Planner

Search our weather history database for the weather conditions in past years. The results will help you decide how hot, cold, wet, or windy it might be!

Date:

Astronomy

Jan. 04, 2014 Rise Set
Actual Time 7:46 AM CST 4:52 PM CST
Civil Twilight 7:14 AM CST 5:24 PM CST
Nautical Twilight 6:38 AM CST 6:00 PM CST
Astronomical Twilight 6:04 AM CST 6:35 PM CST
Moon 9:45 AM CST (1/4) 9:20 PM CST (1/4)
Length of Visible Light 10h 10m
Length of Day
9h 05m
Waxing Crescent, 15% of the Moon is Illuminated
Jan 4
Waxing Crescent
Jan 7
First Quarter
Jan 15
Full
Jan 23
Last Quarter
Jan 30
New

Hourly Weather History & Observations

Time (CST) Temp. Windchill Dew Point Humidity Pressure Visibility Wind Dir Wind Speed Gust Speed Precip Events Conditions
12:15 AM 28.4 °F 18.5 °F 23.0 °F 80% 29.51 in 10.0 mi SSW 11.5 mph - N/A   Scattered Clouds
12:35 AM 30.2 °F 20.8 °F 23.0 °F 75% 29.52 in 10.0 mi SSW 11.5 mph - N/A   Mostly Cloudy
12:55 AM 30.2 °F 20.8 °F 23.0 °F 75% 29.51 in 10.0 mi SSW 11.5 mph 18.4 mph N/A   Overcast
1:15 AM 30.2 °F 20.8 °F 24.8 °F 80% 29.51 in 10.0 mi SSW 11.5 mph 18.4 mph N/A   Overcast
1:35 AM 32.0 °F 22.5 °F 24.8 °F 75% 29.51 in 10.0 mi SSW 12.7 mph 19.6 mph N/A   Overcast
1:55 AM 32.0 °F 23.0 °F 26.6 °F 80% 29.51 in 10.0 mi SSW 11.5 mph 17.3 mph N/A   Overcast
2:15 AM 32.0 °F 23.6 °F 26.6 °F 80% 29.52 in 10.0 mi SW 10.4 mph - N/A   Overcast
2:35 AM 32.0 °F 23.6 °F 26.6 °F 80% 29.53 in 10.0 mi SW 10.4 mph 16.1 mph N/A   Overcast
2:55 AM 32.0 °F 23.0 °F 26.6 °F 80% 29.53 in 10.0 mi SW 11.5 mph - N/A   Mostly Cloudy
3:15 AM 32.0 °F 23.6 °F 26.6 °F 80% 29.54 in 10.0 mi SW 10.4 mph - N/A   Mostly Cloudy
3:35 AM 32.0 °F 23.0 °F 26.6 °F 80% 29.55 in 10.0 mi SW 11.5 mph - N/A   Overcast
3:55 AM 32.0 °F 24.2 °F 26.6 °F 80% 29.56 in 10.0 mi WSW 9.2 mph - N/A   Mostly Cloudy
4:15 AM 32.0 °F 25.6 °F 26.6 °F 80% 29.56 in 10.0 mi WSW 6.9 mph - N/A   Scattered Clouds
4:35 AM 30.2 °F 26.7 °F 26.6 °F 86% 29.58 in 10.0 mi West 3.5 mph - N/A   Mostly Cloudy
4:55 AM 30.2 °F 22.6 °F 28.4 °F 93% 29.59 in 10.0 mi West 8.1 mph - N/A   Overcast
5:15 AM 33.8 °F 21.0 °F 30.2 °F 87% 29.60 in 10.0 mi WNW 25.3 mph 32.2 mph N/A   Overcast
5:35 AM 30.2 °F 17.4 °F 26.6 °F 86% 29.62 in 5.0 mi NW 20.7 mph 26.5 mph N/A   Overcast
5:55 AM 26.6 °F 16.2 °F 21.2 °F 80% 29.66 in 7.0 mi NW 11.5 mph 23.0 mph N/A   Overcast
6:15 AM 23.0 °F 8.3 °F 17.6 °F 80% 29.68 in 7.0 mi NW 19.6 mph 31.1 mph N/A   Overcast
6:35 AM 21.2 °F 4.9 °F 15.8 °F 80% 29.71 in 7.0 mi NW 23.0 mph 28.8 mph N/A   Overcast
6:55 AM 19.4 °F 2.8 °F 14.0 °F 80% 29.72 in 7.0 mi NW 21.9 mph 29.9 mph N/A   Overcast
7:15 AM 17.6 °F 0.1 °F 10.4 °F 73% 29.74 in 7.0 mi NW 23.0 mph 32.2 mph N/A   Overcast
7:35 AM 15.8 °F -1.1 °F 10.4 °F 79% 29.76 in 7.0 mi NW 19.6 mph 31.1 mph N/A   Overcast
7:55 AM 14.0 °F -5.5 °F 8.6 °F 79% 29.79 in 1.8 mi NW 25.3 mph 31.1 mph N/A Snow Light Snow
8:15 AM 14.0 °F -3.9 °F 8.6 °F 79% 29.81 in 3.0 mi NW 20.7 mph 33.4 mph N/A Snow Light Snow
8:35 AM 12.2 °F -5.8 °F 8.6 °F 85% 29.83 in 4.0 mi NW 19.6 mph 31.1 mph N/A Snow Light Snow
8:55 AM 12.2 °F -5.8 °F 6.8 °F 79% 29.83 in 4.0 mi NNW 19.6 mph 27.6 mph N/A Snow Light Snow
9:15 AM 12.2 °F -4.8 °F 6.8 °F 79% 29.84 in 4.0 mi NNW 17.3 mph 28.8 mph N/A Snow Light Snow
9:35 AM 14.0 °F -2.0 °F 8.6 °F 79% 29.87 in 5.0 mi NNW 16.1 mph 26.5 mph N/A   Haze
9:55 AM 14.0 °F -3.4 °F 8.6 °F 79% 29.88 in 7.0 mi NNW 19.6 mph 26.5 mph N/A   Overcast
10:15 AM 14.0 °F -2.5 °F 8.6 °F 79% 29.90 in 4.0 mi NW 17.3 mph 28.8 mph N/A Snow Light Snow
10:35 AM 14.0 °F -2.5 °F 8.6 °F 79% 29.89 in 3.0 mi NNW 17.3 mph 26.5 mph N/A Snow Light Snow
10:55 AM 14.0 °F -2.0 °F 8.6 °F 79% 29.89 in 3.0 mi NNW 16.1 mph 21.9 mph N/A Snow Light Snow
11:15 AM 14.0 °F -3.4 °F 8.6 °F 79% 29.88 in 3.0 mi NNW 19.6 mph 24.2 mph N/A Snow Light Snow
11:35 AM 14.0 °F -3.0 °F 8.6 °F 79% 29.89 in 5.0 mi NNW 18.4 mph 28.8 mph N/A Snow Light Snow
11:55 AM 14.0 °F -2.0 °F 8.6 °F 79% 29.91 in 3.0 mi NNW 16.1 mph 21.9 mph N/A Snow Light Snow
12:15 PM 14.0 °F -0.8 °F 6.8 °F 73% 29.91 in 7.0 mi NNW 13.8 mph - N/A   Overcast
12:35 PM 14.0 °F -0.8 °F 6.8 °F 73% 29.89 in 7.0 mi NNW 13.8 mph 24.2 mph N/A   Mostly Cloudy
12:55 PM 14.0 °F -2.5 °F 6.8 °F 73% 29.92 in 10.0 mi NNW 17.3 mph 20.7 mph N/A   Mostly Cloudy
1:15 PM 14.0 °F -2.0 °F 6.8 °F 73% 29.94 in 10.0 mi NW 16.1 mph 20.7 mph N/A   Scattered Clouds
1:35 PM 14.0 °F -0.8 °F 8.6 °F 79% 29.95 in 4.0 mi NW 13.8 mph 19.6 mph N/A Snow Light Snow
1:55 PM 14.0 °F -3.0 °F 8.6 °F 79% 29.97 in 7.0 mi NNW 18.4 mph 23.0 mph N/A Snow Light Snow
2:15 PM 14.0 °F -2.0 °F 6.8 °F 73% 29.97 in 10.0 mi NW 16.1 mph 24.2 mph N/A   Mostly Cloudy
2:35 PM 14.0 °F -0.8 °F 5.0 °F 67% 29.98 in 10.0 mi NW 13.8 mph - N/A   Scattered Clouds
2:55 PM 15.8 °F -0.2 °F 5.0 °F 62% 29.97 in 10.0 mi NNW 17.3 mph 23.0 mph N/A   Clear
3:15 PM 14.0 °F -2.5 °F 5.0 °F 67% 29.98 in 10.0 mi NNW 17.3 mph 25.3 mph N/A   Clear
3:35 PM 14.0 °F -0.8 °F 6.8 °F 73% 30.02 in 5.0 mi NW 13.8 mph 21.9 mph N/A Snow Light Snow
3:55 PM 12.2 °F -4.3 °F 5.0 °F 73% 30.03 in 5.0 mi NW 16.1 mph 19.6 mph N/A   Haze
4:15 PM 12.2 °F -3.7 °F 5.0 °F 73% 30.04 in 10.0 mi NNW 15.0 mph 21.9 mph N/A   Scattered Clouds
4:35 PM 12.2 °F -5.3 °F 3.2 °F 67% 30.04 in 10.0 mi NNW 18.4 mph - N/A   Clear
4:55 PM 12.2 °F -4.3 °F 3.2 °F 67% 30.04 in 10.0 mi NNW 16.1 mph - N/A   Clear
5:15 PM 10.4 °F -6.6 °F 3.2 °F 73% 30.05 in 10.0 mi NNW 16.1 mph - N/A   Clear
5:35 PM 10.4 °F -5.4 °F 1.4 °F 67% 30.07 in 10.0 mi NNW 13.8 mph 21.9 mph N/A   Clear
5:55 PM 10.4 °F -5.4 °F 3.2 °F 73% 30.07 in 10.0 mi NNW 13.8 mph - N/A   Clear
6:15 PM 10.4 °F -7.2 °F 1.4 °F 67% 30.08 in 10.0 mi NNW 17.3 mph 21.9 mph N/A   Clear
6:35 PM 10.4 °F -6.6 °F 1.4 °F 67% 30.08 in 10.0 mi NNW 16.1 mph - N/A   Clear
6:55 PM 8.6 °F -8.9 °F 1.4 °F 73% 30.10 in 10.0 mi NNW 16.1 mph - N/A   Clear
7:15 PM 8.6 °F -7.0 °F 1.4 °F 73% 30.11 in 10.0 mi NNW 12.7 mph 24.2 mph N/A   Clear
7:35 PM 8.6 °F -8.3 °F -0.4 °F 67% 30.12 in 10.0 mi NNW 15.0 mph 21.9 mph N/A   Clear
7:55 PM 8.6 °F -9.5 °F -0.4 °F 67% 30.13 in 10.0 mi NNW 17.3 mph 26.5 mph N/A   Clear
8:15 PM 6.8 °F -13.4 °F -0.4 °F 72% 30.13 in 10.0 mi NNW 20.7 mph 24.2 mph N/A   Clear
8:35 PM 5.0 °F -14.7 °F -2.2 °F 72% 30.13 in 10.0 mi NNW 18.4 mph 25.3 mph N/A   Clear
8:55 PM 5.0 °F -14.7 °F -2.2 °F 72% 30.14 in 10.0 mi NNW 18.4 mph 25.3 mph N/A   Clear
9:15 PM 5.0 °F -14.7 °F -2.2 °F 72% 30.14 in 10.0 mi NNW 18.4 mph 21.9 mph N/A   Clear
9:35 PM 5.0 °F -13.6 °F -4.0 °F 66% 30.16 in 10.0 mi NNW 16.1 mph 21.9 mph N/A   Clear
9:55 PM 5.0 °F -13.6 °F -4.0 °F 66% 30.16 in 10.0 mi NNW 16.1 mph 24.2 mph N/A   Clear
10:15 PM 3.2 °F -17.6 °F -4.0 °F 72% 30.17 in 10.0 mi NNW 19.6 mph 27.6 mph N/A   Clear
10:35 PM 3.2 °F -17.6 °F -4.0 °F 72% 30.16 in 10.0 mi NNW 19.6 mph 27.6 mph N/A   Clear
10:55 PM 3.2 °F -16.5 °F -4.0 °F 72% 30.18 in 10.0 mi NNW 17.3 mph 26.5 mph N/A   Clear
11:15 PM 3.2 °F -18.1 °F -5.8 °F 66% 30.18 in 10.0 mi NNW 20.7 mph 25.3 mph N/A   Clear
11:35 PM 3.2 °F -15.9 °F -5.8 °F 66% 30.18 in 10.0 mi NNW 16.1 mph 20.7 mph N/A   Clear
11:55 PM 3.2 °F -16.5 °F -5.8 °F 66% 30.18 in 10.0 mi NNW 17.3 mph 24.2 mph N/A   Clear